Skip Page Navigation
NASA JPL Caltech
NASA Logo - Jet Propulsion Laboratory + View the NASA Portal
+ Center for Near-Earth Object Studies
JPL Home Earth Solar System Stars & Galaxies Technology
JPL Solar System Dynamics
BODIES ORBITS EPHEMERIDES TOOLS PHYSICAL DATA DISCOVERY FAQ SITE MAP
JPL Small-Body Database Browser
Search: [ help ]  
325769 (2010 LY63)
Classification: Amor [NEO]          SPK-ID: 2325769
Ephemeris | Orbit Diagram | Orbital Elements | Mission Design | Physical Parameters | Discovery Circumstances | Close-Approach Data ]

[ hide orbit diagram ]

For accurate long-term ephemerides, please instead use our Horizons system.This orbit viewer was implemented using two-body methods, and hence should not be used for determining accurate long-term trajectories (over several years or decades) or planetary encounter circumstances.


Orbital Elements at Epoch 2459200.5 (2020-Dec-17.0) TDB
Reference: JPL 118 (heliocentric ecliptic J2000)
 Element Value Uncertainty (1-sigma)   Units 
e .413483445742498 4.194e-08  
a 1.902814810104375 1.6227e-08 au
q 1.116032385812561 7.6192e-08 au
i 11.12188991441136 6.5029e-06 deg
node 344.9468177006631 1.5783e-05 deg
peri 350.4520658603244 1.7682e-05 deg
M 330.7435686771793 2.1821e-05 deg
tp 2459278.413382796478
(2021-Mar-04.91338280)
5.9096e-05 TDB
period 958.7231435453147
2.62
1.2264e-05
3.358e-08
d
yr
n .3754994363323038 4.8033e-09 deg/d
Q 2.689597234396189 2.2936e-08 au
  Orbit Determination Parameters
   # obs. used (total)      728  
   data-arc span      6378 days (17.46 yr)  
   first obs. used      2002-11-30  
   last obs. used      2020-05-17  
   planetary ephem.      DE441  
   SB-pert. ephem.      SB441-N16  
   condition code      0  
   norm. resid. RMS      .34694  
   source      ORB  
   producer      Otto Matic  
   solution date      2021-Apr-14 07:22:16  

Additional Information
 Earth MOID = .108391 au 
 Jupiter MOID = 2.70902 au 
 T_jup = 3.815 
[ show covariance matrix ]

Ephemeris | Orbit Diagram | Orbital Elements | Mission Design | Physical Parameters | Discovery Circumstances | Close-Approach Data ]

Physical Parameter Table
Parameter Symbol Value Units Sigma Reference Notes
absolute magnitude H 17.84   n/a E2021B25  

325769 (2010 LY63)          Discovered 2010-Jun-12 by Siding Spring Survey at Siding Spring
Reference: 20120406/Numbers.arcLast Updated: 2012-04-09

[ hide close-approach data ]
Close-Approach Data   ...sorted by Date/Time (TDB)
Date/Time (TDB) Time Uncertainty
(days_HH:MM)
Body Nominal Distance (au) Minimum Distance (au) Maximum Distance (au) V-relative (km/s) V-infinity (km/s) JD (TDB) Time Uncertainty (minutes) Semi-major axis (km) Semi-minor axis (km) range-LOV angle (deg) N-sigma BP Orbit Ref. Reference Modified
1913-Aug-18 04:09 < 00:01 Earth 0.245284511868816 0.245276193221896 0.245292830515807 9.07462618175633 9.07342904949694 2419997.672615086 0.982130299697403 414.875580939905 36.3820248104087 -1.39960583497807 67839.6682689368 T 118 CATAB v2.0f-lin.ifort 2021-Apr-14 07:22:18 2021-Apr-14 07:22
1934-Aug-09 11:34 00:01 Earth 0.36468240411322 0.364672043481186 0.36469276474799 11.9903639761049 11.9897546129139 2427658.981922104 1.1745851519312 519.05237924293 39.0518354470756 -5.58843804879761 125748.636704961 T 118 CATAB v2.0f-lin.ifort 2021-Apr-14 07:22:18 2021-Apr-14 07:22
1947-Sep-21 03:13 < 00:01 Earth 0.386046663877226 0.38603609919806 0.386057228561987 13.9529732509086 13.9524785832809 2432449.634368788 0.729161483831984 531.900366254274 17.0782763016658 7.9514585682877 385157.760563763 T 118 CATAB v2.0f-lin.ifort 2021-Apr-14 07:22:18 2021-Apr-14 07:22
1968-Sep-14 12:30 < 00:01 Earth 0.262306915003367 0.262298369578762 0.262315460446298 10.9441747209772 10.9432465285598 2440114.021086265 0.634506627872671 439.953056729004 16.5257862650968 14.4342750961748 475546.61825884 T 118 CATAB v2.0f-lin.ifort 2021-Apr-14 07:22:18 2021-Apr-14 07:22
1989-Sep-08 23:33 < 00:01 Earth 0.172273743102153 0.172269672246642 0.1722778139876 8.80831145289672 8.80655537450779 2447778.480972630 0.36655814172247 232.638249675284 16.4607408703079 29.3368468194763 621086.425400399 T 118 CATAB v2.0f-lin.ifort 2021-Apr-14 07:22:18 2021-Apr-14 07:22
2010-Sep-07 11:25 < 00:01 Earth 0.143869624746182 0.143869397617992 0.143869851874544 8.21765943266155 8.21540542871441 2455446.975708118 0.0679219973547228 17.6525436218404 9.2919046991293 -64.4371661219876 2206534.43042056 T 118 CATAB v2.0f-lin.ifort 2021-Apr-14 07:22:18 2021-Apr-14 07:22
2031-Sep-08 21:12 < 00:01 Earth 0.157693192102754 0.15768943884756 0.157696945405268 8.49051467707519 8.48852438735222 2463118.383106931 0.448681480492126 231.793870234148 16.0749475679383 36.2687425645815 701147.808672015 T 118 CATAB v2.0f-lin.ifort 2021-Apr-14 07:22:18 2021-Apr-14 07:22
2052-Sep-13 07:30 < 00:01 Earth 0.234292585685191 0.234283921386601 0.234301250021551 10.1914667980459 10.1903508579163 2470793.812711745 0.770560492333508 456.851863663325 16.3453257327276 18.9962654113618 556991.071917677 T 118 CATAB v2.0f-lin.ifort 2021-Apr-14 07:22:18 2021-Apr-14 07:22
2073-Sep-19 19:08 < 00:01 Earth 0.347917620799997 0.347906560571943 0.347928681039283 12.9281228906763 12.9275304970044 2478470.297266447 0.884706145294606 560.284324933382 16.4830971838936 10.1664770161075 449223.469475788 T 118 CATAB v2.0f-lin.ifort 2021-Apr-14 07:22:18 2021-Apr-14 07:22
2081-Aug-05 03:42 00:01 Earth 0.427097290297145 0.427086074164062 0.427108506431346 13.902808358524 13.902359623453 2481346.653931002 1.16024311300201 560.36866572258 37.2503503159017 -3.59153494527921 118850.335785915 T 118 CATAB v2.0f-lin.ifort 2021-Apr-14 07:22:18 2021-Apr-14 07:22
2094-Sep-27 19:13 < 00:01 Earth 0.496625462791321 0.496614651447515 0.496636274137441 16.742846024841 16.7425255763381 2486148.300544588 0.839752625435858 541.757094174943 16.8586232316207 5.67777299410639 373863.369534403 T 118 CATAB v2.0f-lin.ifort 2021-Apr-14 07:22:18 2021-Apr-14 07:22
2102-Aug-17 00:23 00:01 Earth 0.290690391039334 0.290680498345292 0.290700283734367 10.295994890663 10.2951045993427 2489027.516286655 1.0571432372065 494.037843532828 33.6889679662924 -3.24023618088078 84390.872804892 T 118 CATAB v2.0f-lin.ifort 2021-Apr-14 07:22:18 2021-Apr-14 07:22
2123-Aug-25 19:49 < 00:01 Earth 0.181970485342353 0.181964709794829 0.18197626091551 8.0634260175648 8.06160991359376 2496706.325837777 0.686431372265987 307.685454936919 29.4500197838956 20.7290891877315 269655.964841159 T 118 CATAB v2.0f-lin.ifort 2021-Apr-14 07:22:18 2021-Apr-14 07:22
2144-Aug-28 13:13 < 00:01 Earth 0.14549364017227 0.145492312116319 0.145494968341178 7.51470631538709 7.51226891558181 2504380.050481656 0.187542933859059 214.138950843221 7.91374997539235 72.1079456103166 2419490.29693326 T 118 CATAB v2.0f-lin.ifort 2021-Apr-14 07:22:18 2021-Apr-14 07:22
2165-Aug-28 17:49 < 00:01 Earth 0.146955064818225 0.146952830127082 0.146957299759686 7.56370950073066 7.56131198318784 2512050.242623924 0.323853800897549 323.136537149718 8.21566468868827 69.8798509699222 2318037.06620451 T 118 CATAB v2.0f-lin.ifort 2021-Apr-14 07:22:18 2021-Apr-14 07:22
2186-Aug-23 18:26 < 00:01 Earth 0.207871113046097 0.207863749408279 0.207878476683915 8.57145395458044 8.56995840226864 2519715.268104121 0.86476703920786 367.19693671783 31.4950593363724 1.06709119705631 66535.7386027229 T 118 CATAB v2.0f-lin.ifort 2021-Apr-14 07:22:18 2021-Apr-14 07:22
Ephemeris | Orbit Diagram | Orbital Elements | Mission Design | Physical Parameters | Discovery Circumstances | Close-Approach Data ]
ABOUT SSD CREDITS/AWARDS PRIVACY/COPYRIGHT GLOSSARY LINKS
FirstGov 2021-Jun-16 15:03 UT
(server date/time)  
NASA Home Page
Site Manager:   Ryan S. Park
Webmaster  Alan B. Chamberlin